DEMLR EDDN-EDDB

Flight info

Callsign DEMLR
Flight time N/A
Altitude
Route
Aircraft E55P

Departure

Time 2026-04-29 16:22
Airport Nuremberg Airport (EDDN)

Arrival

Time N/A
Airport Berlin Brandenburg Airport (EDDB)
Time Latitude Longitude Altitude Speed Heading
2026-04-29 16:11 49.49559 11.06992 1012 ft 0 kts
2026-04-29 16:17 49.49560 11.06993 1012 ft 0 kts
2026-04-29 16:17 49.49568 11.06994 1012 ft 1 kts
2026-04-29 16:18 49.49585 11.06999 1012 ft 3 kts 18°
2026-04-29 16:18 49.49596 11.07028 1013 ft 3 kts 101°
2026-04-29 16:18 49.49592 11.07070 1014 ft 4 kts 98°
2026-04-29 16:18 49.49587 11.07131 1014 ft 7 kts 98°
2026-04-29 16:19 49.49597 11.07208 1014 ft 8 kts 28°
2026-04-29 16:19 49.49652 11.07224 1014 ft 6 kts
2026-04-29 16:19 49.49687 11.07232 1014 ft 3 kts
2026-04-29 16:19 49.49719 11.07228 1014 ft 5 kts 334°
2026-04-29 16:20 49.49741 11.07161 1014 ft 8 kts 279°
2026-04-29 16:20 49.49768 11.07082 1014 ft 8 kts 334°
2026-04-29 16:20 49.49825 11.07046 1014 ft 8 kts 338°
2026-04-29 16:20 49.49854 11.07029 1014 ft 0 kts 339°
2026-04-29 16:21 49.49871 11.07019 1015 ft 3 kts 339°
2026-04-29 16:21 49.49894 11.07013 1015 ft 4 kts
2026-04-29 16:21 49.49925 11.07019 1016 ft 3 kts 12°
2026-04-29 16:21 49.49944 11.07045 1016 ft 4 kts 85°
2026-04-29 16:22 49.49937 11.07109 1016 ft 11 kts 98°
2026-04-29 16:22 49.49887 11.07634 1021 ft 88 kts 99°
2026-04-29 16:22 49.49764 11.08877 1179 ft 135 kts 96°
2026-04-29 16:22 49.49638 11.10349 1746 ft 147 kts 84°
2026-04-29 16:23 49.49918 11.11918 2220 ft 160 kts 57°
2026-04-29 16:23 49.50691 11.13117 2719 ft 158 kts 41°
2026-04-29 16:23 49.51534 11.14374 2962 ft 187 kts 45°
2026-04-29 16:23 49.52568 11.15924 3022 ft 229 kts 43°
2026-04-29 16:24 49.53817 11.17805 3024 ft 271 kts 44°
2026-04-29 16:24 49.55268 11.19913 3019 ft 307 kts 43°
2026-04-29 16:24 49.56805 11.22251 3007 ft 304 kts 44°
2026-04-29 16:24 49.58300 11.24482 3004 ft 295 kts 44°
2026-04-29 16:25 49.59768 11.26643 3018 ft 286 kts 43°
2026-04-29 16:25 49.61179 11.28764 3751 ft 291 kts 44°
2026-04-29 16:25 49.62627 11.30997 4508 ft 298 kts 43°
2026-04-29 16:25 49.64139 11.33195 5246 ft 303 kts 33°
2026-04-29 16:26 49.66137 11.34190 5981 ft 312 kts
2026-04-29 16:26 49.68308 11.34393 6737 ft 317 kts 12°
2026-04-29 16:26 49.70202 11.34863 7392 ft 325 kts 11°
2026-04-29 16:26 49.72421 11.35395 8136 ft 331 kts
2026-04-29 16:27 49.74718 11.35912 8893 ft 337 kts
2026-04-29 16:27 49.77032 11.36422 9640 ft 341 kts
2026-04-29 16:27 49.79396 11.36933 10396 ft 344 kts
2026-04-29 16:27 49.81773 11.37444 11195 ft 345 kts
2026-04-29 16:28 49.84148 11.37943 11952 ft 347 kts
2026-04-29 16:28 49.86547 11.38445 12656 ft 351 kts
2026-04-29 16:28 49.88958 11.38947 13317 ft 355 kts
2026-04-29 16:28 49.91412 11.39461 13980 ft 358 kts
2026-04-29 16:29 49.93862 11.39973 14632 ft 362 kts
2026-04-29 16:29 49.96352 11.40497 15372 ft 362 kts
2026-04-29 16:29 49.98832 11.41019 16148 ft 360 kts
2026-04-29 16:29 50.01293 11.41538 16915 ft 359 kts
2026-04-29 16:30 50.03770 11.42060 17679 ft 357 kts
2026-04-29 16:30 50.06175 11.42567 18417 ft 355 kts
2026-04-29 16:30 50.08632 11.43085 19138 ft 353 kts
2026-04-29 16:30 50.11029 11.43591 19868 ft 350 kts 360°
2026-04-29 16:31 50.13412 11.44095 20570 ft 348 kts 359°
2026-04-29 16:31 50.15792 11.44598 21263 ft 345 kts 359°
2026-04-29 16:31 50.18118 11.45090 21924 ft 343 kts 358°
2026-04-29 16:31 50.20474 11.45589 22590 ft 340 kts 358°
2026-04-29 16:32 50.22787 11.46079 23235 ft 337 kts 358°
2026-04-29 16:32 50.25092 11.46568 23870 ft 334 kts 357°
2026-04-29 16:32 50.27370 11.47052 24490 ft 331 kts 356°
2026-04-29 16:32 50.29622 11.47531 25089 ft 328 kts 356°
2026-04-29 16:33 50.34095 11.48482 26264 ft 321 kts 355°
2026-04-29 16:33 50.36280 11.48948 26820 ft 318 kts 355°
2026-04-29 16:33 50.38443 11.49409 27362 ft 315 kts 355°
2026-04-29 16:34 50.40602 11.49871 27896 ft 311 kts 355°
2026-04-29 16:34 50.42704 11.50319 28409 ft 308 kts 354°
2026-04-29 16:34 50.44820 11.50772 28920 ft 305 kts 354°
2026-04-29 16:34 50.46904 11.51218 29413 ft 301 kts 354°
2026-04-29 16:35 50.48964 11.51660 29883 ft 298 kts 354°
2026-04-29 16:35 50.51002 11.52097 30352 ft 295 kts 353°
2026-04-29 16:35 50.53016 11.52586 30777 ft 302 kts
2026-04-29 16:35 50.54908 11.54310 31126 ft 341 kts 30°
2026-04-29 16:36 50.56565 11.57100 31301 ft 350 kts 32°
2026-04-29 16:36 50.58263 11.59889 31325 ft 356 kts 32°
2026-04-29 16:36 50.61785 11.65530 31325 ft 372 kts 32°
2026-04-29 16:37 50.65476 11.71366 31315 ft 386 kts 33°
2026-04-29 16:37 50.68699 11.76444 31315 ft 398 kts 33°
2026-04-29 16:38 50.73323 11.83729 31316 ft 413 kts 33°
2026-04-29 16:38 50.77445 11.90237 31327 ft 424 kts 34°
2026-04-29 16:39 50.81634 11.96866 31350 ft 433 kts 34°
2026-04-29 16:39 50.85949 12.03714 31381 ft 442 kts 34°
2026-04-29 16:40 50.90325 12.10677 31396 ft 450 kts 34°
2026-04-29 16:40 50.94414 12.17200 31397 ft 457 kts 34°
2026-04-29 16:41 50.98934 12.24430 31398 ft 465 kts 34°
2026-04-29 16:41 51.03509 12.31766 31400 ft 473 kts 34°
2026-04-29 16:42 51.08163 12.39254 31402 ft 481 kts 35°
2026-04-29 16:42 51.12747 12.46653 31407 ft 487 kts 35°
2026-04-29 16:43 51.17525 12.54388 31409 ft 493 kts 35°
2026-04-29 16:43 51.22348 12.62220 31409 ft 496 kts 35°
2026-04-29 16:44 51.27171 12.70078 31396 ft 497 kts 36°
2026-04-29 16:44 51.31995 12.77965 31398 ft 497 kts 36°
2026-04-29 16:45 51.36835 12.85901 31409 ft 497 kts 36°
2026-04-29 16:45 51.41647 12.93816 31417 ft 497 kts 36°
2026-04-29 16:46 51.43985 12.97675 30500 ft 491 kts 36°
2026-04-29 16:46 51.46394 13.01623 29188 ft 491 kts 37°
2026-04-29 16:46 51.48719 13.05471 28210 ft 483 kts 38°
2026-04-29 16:46 51.51059 13.09338 26844 ft 484 kts 38°
2026-04-29 16:47 51.53371 13.13176 25805 ft 476 kts 39°
2026-04-29 16:47 51.55629 13.16936 24823 ft 467 kts 39°
2026-04-29 16:47 51.57819 13.20586 24057 ft 454 kts 39°
2026-04-29 16:47 51.60004 13.24229 23304 ft 448 kts 40°
2026-04-29 16:48 51.62134 13.27780 22562 ft 443 kts 40°
2026-04-29 16:48 51.64252 13.31320 21815 ft 438 kts 40°
2026-04-29 16:48 51.66360 13.34849 21064 ft 434 kts 41°
2026-04-29 16:48 51.68430 13.38316 20320 ft 429 kts 41°
2026-04-29 16:49 51.70480 13.41759 19574 ft 425 kts 42°
2026-04-29 16:49 51.72510 13.45170 18829 ft 420 kts 42°
2026-04-29 16:49 51.74499 13.48520 18090 ft 416 kts 43°
2026-04-29 16:49 51.76475 13.51850 17348 ft 412 kts 43°
2026-04-29 16:50 51.78432 13.55155 16605 ft 407 kts 43°
2026-04-29 16:50 51.80375 13.58439 15859 ft 403 kts 44°
2026-04-29 16:50 51.82305 13.61707 15109 ft 398 kts 44°
2026-04-29 16:50 51.84181 13.64886 14371 ft 393 kts 44°
2026-04-29 16:51 51.86047 13.68052 13621 ft 388 kts 45°
2026-04-29 16:51 51.87912 13.71224 12862 ft 383 kts 46°
2026-04-29 16:51 51.89724 13.74307 12105 ft 376 kts 46°
2026-04-29 16:51 51.91499 13.77327 11128 ft 372 kts 46°
2026-04-29 16:52 51.93354 13.80108 10163 ft 367 kts 33°
2026-04-29 16:52 51.95721 13.81440 9222 ft 361 kts
2026-04-29 16:52 51.98148 13.80983 8276 ft 354 kts 340°
2026-04-29 16:52 52.00178 13.78873 7290 ft 349 kts 313°
2026-04-29 16:53 52.01704 13.75878 6377 ft 343 kts 310°
2026-04-29 16:53 52.03198 13.72941 5438 ft 341 kts 310°
2026-04-29 16:53 52.04642 13.70072 5414 ft 309 kts 309°
2026-04-29 16:53 52.05957 13.67510 5417 ft 286 kts 309°
2026-04-29 16:54 52.07201 13.65052 5424 ft 280 kts 309°
2026-04-29 16:54 52.08455 13.62601 5096 ft 283 kts 309°
2026-04-29 16:54 52.09464 13.59905 4571 ft 280 kts 286°
2026-04-29 16:54 52.09502 13.56739 3561 ft 291 kts 254°
2026-04-29 16:55 52.08460 13.53957 2647 ft 294 kts 219°
2026-04-29 16:55 52.06692 13.52695 2447 ft 268 kts 184°
2026-04-29 16:55 52.05013 13.53270 2422 ft 240 kts 147°
2026-04-29 16:55 52.04039 13.55218 2423 ft 217 kts 108°
2026-04-29 16:56 52.04145 13.57574 2430 ft 212 kts 64°
2026-04-29 16:56 52.05107 13.59385 2434 ft 214 kts 53°
2026-04-29 16:56 52.06039 13.61312 2429 ft 217 kts 53°
2026-04-29 16:56 52.06966 13.63239 2425 ft 219 kts 53°
2026-04-29 16:57 52.07952 13.65127 2419 ft 219 kts 41°
2026-04-29 16:57 52.09377 13.65807 2431 ft 217 kts 358°
2026-04-29 16:57 52.10845 13.65520 2426 ft 210 kts 356°
2026-04-29 16:57 52.12273 13.65229 2421 ft 205 kts 356°
2026-04-29 16:58 52.13688 13.64941 2426 ft 207 kts 356°
2026-04-29 16:58 52.15104 13.64526 2421 ft 207 kts 339°
2026-04-29 16:58 52.16377 13.63493 2424 ft 206 kts 336°
2026-04-29 16:58 52.17720 13.62432 2067 ft 219 kts 340°
2026-04-29 16:59 52.19130 13.61524 2003 ft 213 kts 341°
2026-04-29 16:59 52.20479 13.60648 1994 ft 205 kts 341°
2026-04-29 16:59 52.21778 13.59794 1991 ft 197 kts 341°
2026-04-29 16:59 52.23024 13.59023 1989 ft 186 kts 345°
2026-04-29 17:00 52.24207 13.58471 1989 ft 173 kts 349°
2026-04-29 17:00 52.25345 13.57986 2006 ft 161 kts 349°
2026-04-29 17:00 52.26389 13.57533 1984 ft 150 kts 349°
2026-04-29 17:00 52.27361 13.57110 2008 ft 141 kts 349°
2026-04-29 17:01 52.28284 13.56692 1981 ft 132 kts 347°
2026-04-29 17:01 52.29038 13.55978 1992 ft 124 kts 322°
2026-04-29 17:01 52.29626 13.54981 1994 ft 120 kts 314°
2026-04-29 17:01 52.30108 13.53881 1997 ft 120 kts 304°
2026-04-29 17:02 52.30344 13.52529 2004 ft 125 kts 278°
2026-04-29 17:02 52.30387 13.51082 2003 ft 129 kts 273°
2026-04-29 17:02 52.30409 13.49594 1998 ft 131 kts 274°
2026-04-29 17:02 52.30431 13.48120 1995 ft 129 kts 273°
2026-04-29 17:03 52.30469 13.46666 1982 ft 125 kts 272°
2026-04-29 17:03 52.30658 13.45299 1903 ft 127 kts 307°
2026-04-29 17:03 52.31318 13.44423 1828 ft 121 kts 347°
2026-04-29 17:03 52.32097 13.44085 1836 ft 119 kts 352°
2026-04-29 17:04 52.32925 13.43775 1813 ft 119 kts 352°
2026-04-29 17:04 52.33753 13.43504 1713 ft 123 kts
2026-04-29 17:04 52.34583 13.43670 1529 ft 118 kts 21°
2026-04-29 17:04 52.35297 13.44202 1233 ft 112 kts 38°
2026-04-29 17:05 52.35812 13.45104 937 ft 108 kts 58°
2026-04-29 17:05 52.36182 13.46136 687 ft 104 kts 65°
2026-04-29 17:05 52.36461 13.47206 448 ft 101 kts 69°
2026-04-29 17:05 52.36713 13.48261 242 ft 97 kts 70°
2026-04-29 17:06 52.36949 13.49265 161 ft 89 kts 68°
2026-04-29 17:06 52.37180 13.50237 161 ft 116 kts 69°
2026-04-29 17:06 52.37514 13.51636 574 ft 144 kts 67°
2026-04-29 17:06 52.37945 13.53099 976 ft 142 kts 51°
2026-04-29 17:07 52.38806 13.53766 1219 ft 139 kts 354°
2026-04-29 17:07 52.39479 13.52725 1231 ft 155 kts 284°
2026-04-29 17:07 52.39485 13.50943 1419 ft 158 kts 265°
2026-04-29 17:07 52.39344 13.49144 1470 ft 161 kts 261°
2026-04-29 17:08 52.39130 13.47326 1544 ft 163 kts 257°
2026-04-29 17:08 52.38874 13.45502 1647 ft 165 kts 256°
2026-04-29 17:08 52.38569 13.43676 1688 ft 167 kts 254°
2026-04-29 17:08 52.38220 13.41830 1775 ft 175 kts 253°
2026-04-29 17:09 52.37858 13.39907 1969 ft 177 kts 253°
2026-04-29 17:09 52.37501 13.37941 2060 ft 179 kts 254°
2026-04-29 17:09 52.37174 13.36001 2109 ft 175 kts 255°
2026-04-29 17:09 52.36856 13.34012 2038 ft 183 kts 255°
2026-04-29 17:10 52.36440 13.32133 2080 ft 163 kts 232°
2026-04-29 17:10 52.35614 13.31356 2055 ft 123 kts 172°
2026-04-29 17:10 52.34920 13.31926 1846 ft 107 kts 126°
2026-04-29 17:10 52.34577 13.33024 1636 ft 123 kts 101°
2026-04-29 17:11 52.34490 13.34385 1618 ft 113 kts 90°
2026-04-29 17:11 52.34505 13.35691 1587 ft 113 kts 88°
2026-04-29 17:11 52.34545 13.37029 1586 ft 116 kts 85°
2026-04-29 17:11 52.34634 13.38319 1479 ft 111 kts 83°
2026-04-29 17:12 52.34763 13.39547 1324 ft 110 kts 80°
2026-04-29 17:12 52.34969 13.40762 1179 ft 110 kts 73°
2026-04-29 17:12 52.35222 13.41960 1052 ft 111 kts 72°
2026-04-29 17:12 52.35397 13.42764 982 ft 113 kts 71°
2026-04-29 17:13 52.35791 13.44383 827 ft 117 kts 69°
2026-04-29 17:13 52.36090 13.45627 621 ft 119 kts 70°
2026-04-29 17:13 52.36385 13.46869 451 ft 116 kts 69°
2026-04-29 17:13 52.36672 13.48085 265 ft 114 kts 69°
2026-04-29 17:14 52.36941 13.49225 163 ft 97 kts 69°
2026-04-29 17:14 52.37165 13.50179 161 ft 91 kts 68°
2026-04-29 17:14 52.37478 13.51490 336 ft 150 kts 69°
2026-04-29 17:14 52.37845 13.52989 986 ft 130 kts 68°
2026-04-29 17:15 52.38535 13.54197 1484 ft 162 kts 25°
2026-04-29 17:15 52.39646 13.54266 1920 ft 170 kts 342°
2026-04-29 17:15 52.40643 13.53015 2022 ft 203 kts 303°
2026-04-29 17:15 52.41361 13.50726 2039 ft 246 kts 299°
2026-04-29 17:16 52.42141 13.48058 2025 ft 278 kts 295°
2026-04-29 17:16 52.43034 13.44979 2025 ft 307 kts 295°
2026-04-29 17:16 52.43932 13.41883 2012 ft 298 kts 295°
2026-04-29 17:16 52.44876 13.38627 2035 ft 331 kts 295°
2026-04-29 17:17 52.45807 13.35427 2175 ft 303 kts 295°
2026-04-29 17:17 52.46684 13.32397 2028 ft 283 kts 295°
2026-04-29 17:17 52.47504 13.29558 2011 ft 270 kts 295°
2026-04-29 17:17 52.48323 13.26856 2003 ft 258 kts 304°
2026-04-29 17:18 52.49679 13.25194 2012 ft 242 kts 345°
2026-04-29 17:18 52.51302 13.24977 2111 ft 228 kts
2026-04-29 17:18 52.52957 13.24920 2372 ft 242 kts
2026-04-29 17:18 52.54667 13.24869 2627 ft 253 kts
2026-04-29 17:19 52.56461 13.24821 2882 ft 263 kts